Home > Weather > Nordkirchen > Past weeks

Flag for Germany Past Weather in Nordkirchen, North Rhine-Westphalia, Germany — Yesterday and Last 2 Weeks

Now
79 °F

Passing clouds.


Feels Like: 79 °F
Forecast: 64 / 76 °F
Wind: 6 mph from Northwest

Location: Dortmund / Wickede

Current Time: Jul 24, 2016 at 6:42:38 PM

Latest Report: Jul 24, 2016 at 5:50 PM


Visibility: N/A

Pressure: 30.07 "Hg

Humidity: 34%

Dew Point: 48 °F

Location of NordkirchenLocation

Past Weather in Nordkirchen — Graph

°F

Nordkirchen Temperature Yesterday

Maximum temperature yesterday: 73 °F (at 5:20 PM)
Minimum temperature yesterday: 63 °F (at 5:20 AM)
Average temperature yesterday: 69 °F

High & Low Weather Summary for the Past Weeks

 TemperatureHumidityPressure
High91 °F (Jul 20, 3:20 PM)88% (Jul 13, 5:20 AM)30.30 "Hg (Jul 13, 5:20 AM)
Low48 °F (Jul 14, 5:20 AM)20% (Jul 20, 5:20 PM)29.77 "Hg (Jul 10, 7:20 PM)
Average70 °F59%30.05 "Hg
* Reported Jul 9 4:20 PM — Jul 24 4:50 PM, Nordkirchen, Weather by CustomWeather, © 2016

Note: Actual official high and low records may vary slightly from our data, if they occured in-between our weather recording intervals... More about our weather records

Advertising

Nordkirchen Weather History for the Previous 24 Hours

Scroll right to see more
 ConditionsComfort  
Time TempWeatherWind HumidityBarometerVisibility
4:50 PM
Sun, Jul 24
81 °FSunny.5 mph30%30.09 "Hg10 mi
4:20 PM82 °FSunny.5 mph28%30.09 "Hg10 mi
3:50 PM81 °FPassing clouds.7 mph32%30.09 "HgN/A
3:20 PM81 °FPassing clouds.7 mph32%30.09 "HgN/A
2:50 PM79 °FPassing clouds.9 mph34%30.09 "HgN/A
2:20 PM79 °FSunny.3 mph34%30.09 "Hg10 mi
1:50 PM79 °FPassing clouds.8 mph32%30.09 "HgN/A
1:20 PM79 °FPassing clouds.8 mph34%30.09 "HgN/A
12:50 PM81 °FSunny.6 mph32%30.09 "Hg10 mi
12:20 PM77 °FSunny.3 mph34%30.09 "Hg10 mi
11:50 AM77 °FSunny.3 mph42%30.12 "Hg10 mi
11:20 AM75 °FSunny.2 mph44%30.12 "Hg10 mi
10:50 AM72 °FSunny.1 mph57%30.12 "Hg10 mi
10:20 AM70 °FSunny.No wind69%30.12 "Hg10 mi
9:50 AM70 °FSunny.No wind60%30.12 "Hg10 mi
9:20 AM68 °FSunny.No wind69%30.12 "Hg10 mi
8:50 AM66 °FSunny.2 mph78%30.09 "Hg10 mi
8:20 AM66 °FSunny.3 mph78%30.09 "Hg10 mi
7:50 AM64 °FSunny.2 mph83%30.09 "Hg10 mi
7:20 AM63 °FPassing clouds.5 mph83%30.09 "HgN/A
6:50 AM61 °FSunny.1 mph83%30.09 "Hg10 mi
6:20 AM59 °FClear.No wind88%30.09 "Hg10 mi
5:50 AM61 °FClear.No wind83%30.09 "Hg10 mi
5:20 AM59 °FClear.1 mph82%30.09 "Hg10 mi
9:50 PM
Sat, Jul 23
68 °FSunny.5 mph56%30.09 "Hg10 mi
9:20 PM70 °FSunny.7 mph53%30.09 "Hg10 mi
8:50 PM70 °FPassing clouds.7 mph69%30.09 "HgN/A
8:20 PM72 °FPassing clouds.6 mph65%30.09 "HgN/A
7:50 PM72 °FPassing clouds.7 mph65%30.09 "HgN/A
7:20 PM72 °FPassing clouds.7 mph69%30.07 "HgN/A
6:50 PM72 °FPassing clouds.5 mph69%30.07 "HgN/A
6:20 PM72 °FSunny.5 mph69%30.09 "Hg10 mi
Weather by CustomWeather, © 2016

See weather overviewHow to use our weather pages